Location: São Paulo
(23.5507°S, 46.6334°W)
Time: 09:59:23
(UTC-03:00)

Transit 4A - Pass Details

Date: 19 February 2026
Orbit: 864 x 977 km, 66.8° (Epoch: 11 March)

Event Time Altitude Azimuth Distance (km) Brightness Sun altitude
Rises 13:49:35 0° 0° (N) 3,657 11.2 65.4°
Reaches altitude 10° 13:52:22 10° 9° (N) 2,714 10.6 64.8°
Maximum altitude 13:58:03 35° 72° (ENE) 1,512 9.3 63.6°
Drops below altitude 10° 14:03:42 10° 136° (SE) 2,700 10.2 62.4°
Sets 14:06:27 0° 144° (SE) 3,636 10.8 61.9°
